Change the Weather History Date:

Friday, July 19, 2013

  Actual Average Record
Temperature  
Mean Temperature 75 °F 71 °F  
Max Temperature 93 °F 85 °F 103 °F (1988)
Min Temperature 57 °F 57 °F 45 °F (1962)
Degree Days  
Heating Degree Days 0 0  
Month to date heating degree days 0 8  
Since 1 June heating degree days 35 91  
Since 1 July heating degree days 0 8  
Cooling Degree Days 10 6  
Month to date cooling degree days 175 95  
Year to date cooling degree days 320 165  
Since 1 June cooling degree days 286 145  
Growing Degree Days 24 (Base 50)    
Moisture  
Dew Point 53 °F    
Average Humidity 51    
Maximum Humidity 80    
Minimum Humidity 21    
Precipitation  
Precipitation 0.00 in 0.01 in 0.84 in (1987)
Month to date precipitation T 0.29  
Year to date precipitation 7.88 19.05  
Sea Level Pressure  
Sea Level Pressure 30.04 in    
Wind  
Wind Speed 6 mph (North)    
Max Wind Speed 18 mph    
Max Gust Speed 22 mph    
Visibility 10 miles    
Events      
T = Trace of Precipitation, MM = Missing Value Source: NWS Daily Summary

Daily Weather History Graph

Daily Weather History Graph

Search for Another Location

Airport or City:

Trip Planner

Search our weather history database for the weather conditions in past years. The results will help you decide how hot, cold, wet, or windy it might be!

Date:

Astronomy

Jul. 19, 2013 Rise Set
Actual Time 5:50 AM PDT 8:47 PM PDT
Civil Twilight 5:17 AM PDT 9:21 PM PDT
Nautical Twilight 4:34 AM PDT 10:04 PM PDT
Astronomical Twilight 3:43 AM PDT 10:55 PM PDT
Moon 5:56 PM PDT (7/19) 2:37 AM PDT (7/19)
Length of Visible Light 16h 04m
Length of Day
14h 57m
Waxing Gibbous, 87% of the Moon is Illuminated
Jul 19
Waxing Gibbous
Jul 22
Full
Jul 29
Last Quarter
Aug 6
New
Aug 14
First Quarter

Hourly Weather History & Observations

Time (PDT) Temp. Heat Index Dew Point Humidity Pressure Visibility Wind Dir Wind Speed Gust Speed Precip Events Conditions
12:53 AM 66.9 °F - 54.0 °F 63% 30.09 in 10.0 mi Calm Calm - N/A   Clear
1:53 AM 64.9 °F - 54.0 °F 68% 30.09 in 10.0 mi Calm Calm - N/A   Clear
2:53 AM 62.1 °F - 53.1 °F 72% 30.09 in 10.0 mi Calm Calm - N/A   Clear
3:53 AM 61.0 °F - 53.1 °F 75% 30.09 in 10.0 mi Calm Calm - N/A   Clear
4:53 AM 59.0 °F - 52.0 °F 78% 30.09 in 10.0 mi Calm Calm - N/A   Clear
5:53 AM 57.9 °F - 52.0 °F 81% 30.10 in 10.0 mi Calm Calm - N/A   Clear
6:53 AM 59.0 °F - 53.1 °F 81% 30.11 in 10.0 mi Calm Calm - N/A   Clear
7:53 AM 63.0 °F - 53.1 °F 70% 30.11 in 10.0 mi NNE 3.5 mph - N/A   Clear
8:53 AM 66.0 °F - 53.1 °F 63% 30.11 in 10.0 mi North 6.9 mph - N/A   Clear
9:53 AM 69.1 °F - 54.0 °F 58% 30.09 in 10.0 mi Variable 4.6 mph - N/A   Clear
10:53 AM 73.9 °F - 54.0 °F 50% 30.07 in 10.0 mi NNE 5.8 mph - N/A   Clear
11:53 AM 79.0 °F - 54.0 °F 42% 30.06 in 10.0 mi North 9.2 mph 17.3 mph N/A   Clear
12:53 PM 84.0 °F 82.5 °F 53.1 °F 34% 30.03 in 10.0 mi NNE 13.8 mph 17.3 mph N/A   Clear
1:53 PM 86.0 °F - 48.9 °F 28% 30.01 in 10.0 mi NNE 11.5 mph - N/A   Clear
2:53 PM 90.0 °F - 51.1 °F 26% 29.99 in 10.0 mi North 12.7 mph - N/A   Clear
3:53 PM 91.0 °F - 46.9 °F 22% 29.98 in 10.0 mi North 9.2 mph 20.7 mph N/A   Clear
4:53 PM 91.9 °F - 46.0 °F 21% 29.96 in 10.0 mi NNW 11.5 mph 18.4 mph N/A   Clear
5:53 PM 91.0 °F - 48.0 °F 23% 29.95 in 10.0 mi NNE 13.8 mph - N/A   Clear
6:53 PM 89.1 °F 86.9 °F 54.0 °F 30% 29.96 in 10.0 mi NNE 13.8 mph 19.6 mph N/A   Clear
7:53 PM 82.9 °F 82.4 °F 57.0 °F 41% 29.97 in 10.0 mi NW 9.2 mph 17.3 mph N/A   Clear
8:53 PM 79.0 °F - 57.0 °F 47% 29.99 in 10.0 mi NW 6.9 mph - N/A   Clear
9:53 PM 75.0 °F - 55.9 °F 51% 30.01 in 10.0 mi NW 6.9 mph - N/A   Clear
10:53 PM 73.0 °F - 55.9 °F 55% 30.02 in 10.0 mi North 5.8 mph - N/A   Clear
11:53 PM 70.0 °F - 55.0 °F 59% 30.02 in 10.0 mi Calm Calm - N/A   Clear